Total_Precipitation_Accumulation
0.01 0.02 0.05 0.07 0.16 0.36 0.48 0.38 0.47 0.51 0.63 0.65 0.67 0.75 0.80 0.86 1.34 2.22 1.44 0.87 0.59 0.42 0.43 0.50 0.48 0.45 0.49 0.50 0.54 0.56 0.61 0.63 0.62 0.61 0.58 0.57 0.62 0.67 0.71 0.85 0.98 1.10 1.21 1.21 1.31 1.49 1.55 1.47 1.40
0.02 0.03 0.05 0.10 0.24 0.44 0.53 0.53 0.63 0.52 0.59 0.64 0.66 0.72 0.71 0.72 0.71 0.82 0.85 0.84 0.66 0.52 0.62 0.57 0.47 0.45 0.50 0.52 0.57 0.60 0.65 0.71 0.75 0.76 0.70 0.66 0.71 0.78 0.84 1.00 1.10 1.20 1.37 1.36 1.31 1.42 1.54 1.43 1.38
0.03 0.04 0.08 0.19 0.28 0.42 0.60 0.62 0.66 0.59 0.67 0.67 0.76 0.83 0.92 0.95 0.83 0.81 0.82 0.78 0.72 0.62 0.72 0.65 0.53 0.50 0.50 0.57 0.57 0.63 0.70 0.79 0.85 0.90 0.96 0.89 0.78 0.81 0.96 1.12 1.17 1.24 1.39 1.63 1.54 1.50 1.62 1.44 1.40
0.03 0.05 0.11 0.25 0.26 0.29 0.42 0.52 0.59 0.68 0.85 0.75 0.77 0.89 0.96 0.95 0.92 0.94 0.96 0.85 0.68 0.64 0.67 0.62 0.60 0.59 0.58 0.61 0.64 0.74 0.83 0.88 0.91 0.99 1.07 1.11 0.97 0.94 1.10 1.23 1.25 1.32 1.42 1.63 1.87 1.78 1.87 1.74 1.49
0.04 0.11 0.19 0.28 0.29 0.31 0.41 0.47 0.60 0.81 0.86 0.76 0.79 1.08 1.30 1.27 1.05 1.02 0.99 0.88 0.74 0.70 0.70 0.78 0.82 0.86 0.86 0.81 0.81 0.88 0.93 0.99 1.04 1.04 1.09 1.19 1.14 1.10 1.27 1.40 1.40 1.46 1.52 1.65 1.79 1.77 1.93 1.81 1.58
0.08 0.15 0.28 0.36 0.35 0.33 0.40 0.54 0.66 0.80 0.94 0.88 0.89 1.25 1.79 1.78 1.53 1.35 1.14 1.08 0.97 0.83 0.91 1.04 1.17 1.25 1.15 1.06 1.01 1.03 1.01 1.02 1.09 1.20 1.18 1.22 1.28 1.30 1.30 1.39 1.48 1.64 1.73 1.77 1.83 1.85 1.87 1.86 1.76
0.08 0.16 0.26 0.36 0.38 0.45 0.41 0.46 0.71 0.92 1.11 1.20 1.05 1.34 1.80 1.94 1.73 1.53 1.61 1.51 1.32 1.23 1.31 1.29 1.22 1.20 1.21 1.17 1.13 1.20 1.18 1.15 1.17 1.30 1.37 1.29 1.32 1.39 1.45 1.55 1.61 1.67 1.69 1.73 1.85 2.09 1.99 1.84 1.82
0.05 0.11 0.22 0.30 0.39 0.48 0.47 0.54 0.72 0.97 1.20 1.20 1.03 1.39 1.93 1.91 1.72 1.81 2.01 1.98 1.98 2.08 2.31 1.81 1.44 1.29 1.17 1.16 1.25 1.35 1.50 1.44 1.34 1.38 1.51 1.52 1.53 1.58 1.65 1.69 1.73 1.72 1.78 1.80 1.98 2.23 2.23 2.08 1.95
0.05 0.11 0.19 0.27 0.38 0.47 0.49 0.60 0.66 0.71 0.99 0.97 0.89 1.12 1.67 1.67 1.60 1.92 2.39 2.66 2.60 2.79 3.01 2.28 1.81 1.58 1.46 1.43 1.45 1.55 1.73 1.83 1.68 1.60 1.66 1.82 1.95 2.16 2.16 1.96 2.03 1.95 2.04 2.08 2.17 2.34 2.34 2.37 2.36
0.07 0.16 0.22 0.23 0.32 0.44 0.52 0.57 0.70 0.79 1.00 1.01 0.90 0.99 1.21 1.66 1.87 2.17 2.53 3.17 3.18 2.84 2.67 2.42 2.22 1.92 1.75 1.68 1.92 2.04 1.96 2.02 1.87 2.04 1.96 2.16 2.66 2.82 2.47 2.42 2.35 2.24 2.34 2.49 2.58 2.60 2.54 2.40 2.40
0.09 0.22 0.21 0.24 0.34 0.51 0.62 0.66 0.84 1.09 1.23 1.23 1.21 1.33 1.63 1.96 2.12 2.41 2.73 3.21 3.45 3.31 2.83 2.57 2.36 2.29 2.15 2.23 2.45 2.56 2.65 2.69 2.48 2.60 2.59 2.68 2.81 2.77 2.76 2.76 2.66 2.66 2.67 2.93 3.08 2.90 2.62 2.46 2.49
0.10 0.15 0.17 0.29 0.35 0.44 0.62 0.70 0.81 1.08 1.38 1.43 1.46 1.63 2.04 2.29 2.49 2.82 3.04 3.35 3.40 3.50 3.38 2.85 2.73 2.82 3.02 3.04 2.98 2.94 2.93 3.01 2.94 2.98 2.83 2.96 3.06 3.05 2.96 2.99 2.93 3.00 2.93 3.17 3.23 3.21 3.08 2.86 2.67
0.12 0.20 0.20 0.27 0.34 0.44 0.51 0.68 0.77 1.00 1.04 1.20 1.49 1.83 2.05 2.01 2.46 2.97 3.07 3.37 3.49 3.57 3.47 3.18 3.37 3.46 3.54 3.57 3.56 3.31 3.21 3.43 3.45 3.42 3.31 3.34 3.27 3.11 3.12 3.10 3.12 3.02 3.15 3.29 3.35 3.24 3.14 3.04 2.88
0.13 0.14 0.18 0.24 0.28 0.39 0.46 0.61 0.78 1.03 1.12 1.24 1.46 1.64 1.79 2.02 2.52 2.96 3.20 3.58 3.52 3.54 3.77 3.74 3.82 3.72 3.65 3.74 3.93 3.96 3.63 3.77 4.00 4.10 3.94 3.74 3.61 3.51 3.52 3.60 3.57 3.32 3.33 3.47 3.60 3.49 3.38 3.13 2.99
0.16 0.15 0.21 0.27 0.27 0.30 0.40 0.66 0.77 0.95 1.09 1.15 1.30 1.36 1.52 2.01 2.41 2.97 3.34 3.71 3.71 3.75 3.83 3.87 3.76 3.95 4.09 4.11 4.10 4.15 4.06 4.03 4.20 4.43 4.42 4.04 3.76 3.87 3.92 4.11 4.09 3.78 3.73 3.83 3.91 3.90 3.76 3.35 3.07
0.18 0.20 0.32 0.34 0.33 0.33 0.45 0.86 1.02 0.98 0.97 1.10 1.16 1.21 1.42 1.99 2.45 2.82 3.18 3.54 3.60 3.76 4.10 4.05 3.66 4.09 4.32 4.27 4.24 4.03 4.10 4.37 4.57 4.63 4.74 4.41 4.03 3.93 4.15 4.13 3.96 3.94 4.06 4.29 4.45 4.34 4.25 4.03 3.79
0.22 0.27 0.37 0.42 0.39 0.41 0.53 0.89 1.20 1.12 1.02 1.06 1.03 1.11 1.32 1.66 2.20 2.58 3.01 3.43 3.68 3.93 4.43 4.26 4.02 4.20 4.33 4.40 4.47 4.24 4.34 4.67 4.82 4.97 4.99 4.53 4.10 4.02 4.33 4.43 4.41 4.33 4.39 4.50 4.29 4.44 4.37 4.53 4.38
0.27 0.34 0.46 0.52 0.49 0.47 0.62 0.95 1.22 1.32 1.24 1.17 1.13 1.25 1.47 1.54 1.79 2.13 2.69 3.29 3.67 4.24 4.98 4.61 4.23 4.20 4.52 4.56 4.42 4.42 4.54 4.84 5.17 5.25 5.04 4.71 4.52 4.35 4.60 4.60 4.64 4.71 4.83 4.74 4.68 4.73 4.53 4.43 4.39
0.25 0.35 0.46 0.58 0.53 0.57 0.72 1.03 1.27 1.46 1.41 1.23 1.32 1.56 1.60 1.55 1.75 1.97 2.53 3.23 3.63 4.17 4.67 4.68 4.49 4.57 4.67 4.70 4.49 4.64 4.83 5.14 5.45 5.41 5.30 5.17 5.02 4.93 5.04 5.08 5.07 4.91 4.86 4.79 4.69 4.69 4.62 4.32 4.15
0.22 0.32 0.43 0.58 0.56 0.63 0.77 1.08 1.44 1.58 1.56 1.49 1.49 1.74 1.68 1.72 1.96 2.28 2.81 3.17 3.54 3.90 4.16 4.47 4.63 4.67 4.47 4.84 5.14 5.43 5.78 5.84 6.14 6.39 6.41 6.18 5.87 5.68 5.52 5.55 5.22 4.92 4.83 4.72 4.62 4.54 4.40 4.02 3.92
0.19 0.25 0.38 0.48 0.52 0.58 0.77 1.31 1.54 1.69 1.65 1.69 1.77 2.02 1.98 2.01 2.23 2.62 2.98 3.13 3.35 3.70 4.05 4.39 4.75 4.88 4.82 5.31 5.85 6.30 6.70 6.63 6.69 6.65 6.61 6.53 6.09 5.77 5.56 5.31 5.14 4.95 4.78 4.61 4.59 4.50 4.39 4.08 3.89
0.18 0.16 0.24 0.35 0.50 0.69 0.71 1.31 1.59 1.82 1.84 1.72 1.92 2.11 2.19 2.03 2.06 2.41 2.75 3.19 3.17 3.42 3.83 4.17 4.60 5.03 5.35 5.76 6.26 6.79 7.14 7.38 7.21 6.88 6.60 6.22 5.73 5.40 5.04 4.84 4.89 4.77 4.56 4.36 4.04 3.93 3.97 3.96 3.77
0.16 0.13 0.21 0.31 0.43 0.66 0.74 1.15 1.66 1.92 1.99 1.84 1.96 2.01 2.12 2.01 1.98 2.19 2.34 2.69 2.97 3.19 3.55 4.00 4.36 4.78 5.43 6.21 6.78 7.32 7.67 7.69 7.15 6.56 6.01 5.53 5.10 4.76 4.52 4.44 4.54 4.43 4.19 4.00 3.73 3.56 3.39 3.38 3.49
0.12 0.20 0.30 0.41 0.57 0.93 0.80 1.12 1.86 2.02 2.08 2.10 2.04 1.96 2.03 2.00 2.03 2.19 2.32 2.63 2.86 2.98 3.23 3.74 4.31 4.68 5.25 6.03 6.64 7.00 7.18 7.12 6.68 6.04 5.49 5.02 4.56 4.18 3.86 3.67 3.59 3.52 3.36 3.25 3.22 3.19 3.13 3.14 3.22
0.16 0.38 0.73 0.94 1.03 1.00 0.80 1.15 1.93 2.14 2.05 2.05 2.10 2.15 2.23 2.23 2.23 2.22 2.23 2.34 2.61 2.79 3.06 3.50 4.00 4.51 4.88 5.34 5.85 5.92 6.01 5.76 5.36 5.16 4.85 4.32 3.88 3.51 3.17 2.98 2.87 2.86 2.81 2.74 2.79 2.86 2.89 2.87 2.94
0.15 0.34 0.86 1.11 1.10 1.08 1.15 1.74 2.39 2.33 2.17 2.09 1.97 1.96 2.09 2.16 2.08 2.13 2.10 2.32 2.65 2.93 3.19 3.44 3.70 4.05 4.41 4.57 4.72 4.59 4.47 4.39 4.24 4.03 3.67 3.31 3.03 2.82 2.72 2.64 2.48 2.44 2.47 2.46 2.63 2.61 2.53 2.56 2.59
0.18 0.25 0.40 0.62 0.81 1.20 1.59 2.14 2.70 2.63 2.39 2.17 2.05 1.97 2.02 1.95 1.89 1.98 2.11 2.40 2.67 2.93 3.10 3.33 3.48 3.58 3.58 3.59 3.66 3.62 3.53 3.41 3.34 3.24 2.94 2.67 2.51 2.33 2.31 2.28 2.21 2.11 2.06 2.06 2.11 2.11 2.14 2.25 2.20
0.17 0.22 0.36 0.70 1.14 1.47 1.78 2.43 2.99 3.03 2.71 2.18 1.98 1.86 1.92 1.99 1.95 1.98 2.13 2.38 2.41 2.48 2.68 2.91 3.03 3.17 3.15 3.01 2.92 3.01 2.94 2.76 2.60 2.45 2.34 2.19 2.08 2.03 2.03 1.94 1.88 1.89 1.90 1.84 1.78 1.76 1.82 1.90 1.95
0.26 0.34 0.43 0.72 0.90 1.31 2.02 2.81 2.81 3.09 2.94 2.55 2.21 1.96 2.00 2.10 2.05 2.00 2.13 2.24 2.12 2.05 2.09 2.23 2.41 2.71 2.75 2.66 2.55 2.58 2.52 2.39 2.24 2.13 2.04 2.02 1.90 1.86 1.80 1.78 1.77 1.66 1.63 1.68 1.71 1.68 1.71 1.84 1.85
0.30 0.40 0.51 0.91 1.04 1.06 1.90 3.01 2.66 2.70 2.85 2.72 2.45 2.25 2.12 2.11 2.11 2.01 2.05 2.10 2.03 1.92 1.83 1.94 2.10 2.18 2.19 2.22 2.30 2.38 2.30 2.22 2.10 2.03 2.01 1.97 1.83 1.77 1.75 1.73 1.69 1.51 1.44 1.59 1.66 1.62 1.59 1.72 1.73